Wind_Speed
8 7 7 9 11 14 16 18 20 20 20 19 19 18 16 13 10 6 3 1 2 4 5 6 7 7 7 6 6 6 6 5 5 5 5 5 5 5 5 6 6 6 6 6 6 6 5 5 4
7 6 6 8 10 14 16 18 19 19 19 19 19 18 16 14 11 8 5 3 3 5 6 7 8 8 7 6 6 5 5 4 4 4 4 5 5 5 5 6 6 6 6 6 6 6 5 4 4
6 5 6 7 9 12 14 16 17 17 18 19 19 18 16 15 12 10 6 4 3 4 6 8 9 8 8 7 6 6 5 4 3 3 3 4 4 5 5 5 5 5 6 6 5 5 4 4 3
5 5 5 6 7 10 13 15 16 17 17 18 19 18 17 15 13 11 8 4 3 4 7 9 10 9 9 8 8 7 5 4 3 2 2 3 4 4 5 5 5 5 5 5 5 4 4 3 2
4 4 4 5 5 9 11 14 16 17 19 19 19 20 18 15 14 11 9 5 3 4 7 9 10 11 10 10 9 8 6 5 3 2 1 2 3 4 4 5 5 5 5 5 5 4 4 3 2
4 4 3 3 5 7 9 12 14 16 18 19 20 21 21 18 16 12 9 7 5 5 8 10 11 12 11 11 10 9 7 6 4 3 1 1 2 3 4 4 5 5 4 4 4 4 3 2 1
4 4 4 4 5 6 9 10 12 14 17 19 20 22 21 20 16 13 10 8 6 7 8 9 11 13 13 11 11 10 9 7 5 4 2 1 2 3 4 4 5 5 4 3 3 3 3 2 1
6 6 6 6 6 8 9 10 12 14 17 19 20 22 22 21 18 14 11 9 7 6 8 9 11 12 12 12 11 10 10 8 6 5 3 2 2 3 3 4 4 4 4 3 3 3 2 2 1
8 8 7 7 8 9 10 10 11 13 16 18 20 21 22 21 18 14 11 8 6 6 8 8 10 12 13 13 12 11 11 9 8 6 5 3 2 2 3 3 4 4 3 3 3 3 2 2 1
9 10 10 9 10 10 10 10 11 12 15 17 19 21 22 21 18 13 10 8 6 6 7 8 10 11 13 14 13 12 12 11 9 8 6 4 3 3 3 3 3 3 3 3 2 3 2 2 1
11 11 12 11 11 11 10 10 10 11 14 16 19 20 21 21 18 13 10 8 7 6 8 8 9 10 12 14 14 14 13 12 11 9 7 6 4 3 3 3 3 3 3 2 2 2 2 2 1
10 11 11 12 12 10 10 10 9 10 12 15 17 18 19 20 17 13 11 9 8 7 7 9 10 11 12 13 14 15 14 14 13 11 9 7 5 4 4 4 3 3 2 2 2 2 2 2 1
10 10 10 11 11 11 10 9 9 9 11 13 16 16 18 18 17 14 11 9 8 7 8 10 11 13 14 14 14 15 15 15 14 12 10 8 6 5 5 4 3 2 2 2 1 1 1 2 2
10 9 9 10 11 11 10 8 8 9 10 12 14 15 17 17 16 14 12 10 9 7 8 10 12 13 14 15 16 18 17 16 15 13 11 9 8 6 5 4 3 2 2 1 1 1 2 2 1
10 10 9 9 10 10 9 9 8 9 10 12 14 15 16 17 17 15 13 11 10 8 7 8 11 13 14 15 16 18 19 18 16 14 12 11 9 7 5 4 3 3 3 2 2 2 2 1 2
11 11 10 10 11 12 11 9 8 9 10 12 14 15 16 17 17 15 14 12 11 9 6 7 8 11 13 15 17 18 18 17 16 15 14 12 10 8 6 5 5 4 4 3 2 2 2 2 2
13 12 11 10 12 13 12 11 9 10 12 13 13 15 16 17 17 16 14 13 11 9 6 7 8 11 14 16 17 18 18 17 16 16 15 13 12 10 8 7 6 5 5 4 3 3 3 2 2
14 13 12 12 14 14 14 13 12 11 12 12 13 15 17 18 18 16 15 13 12 9 7 7 9 12 14 14 16 17 17 16 17 16 15 14 13 12 10 8 7 6 6 5 4 4 4 3 3
16 14 14 14 17 17 16 15 13 13 13 12 13 15 16 18 18 16 15 13 11 9 7 7 8 12 14 15 15 16 16 16 17 16 16 15 15 13 11 10 8 7 7 6 5 5 4 4 3
17 16 15 16 18 18 17 16 14 14 14 13 14 15 16 17 18 15 14 13 12 9 8 8 8 10 13 14 15 17 17 17 18 18 17 16 16 14 13 12 10 9 8 7 7 6 5 5 4
17 17 17 18 19 19 18 15 14 14 14 13 14 15 15 17 17 16 15 13 12 10 7 7 6 8 11 13 14 15 16 17 17 17 17 17 16 15 14 13 12 10 10 9 8 7 7 6 5
17 18 19 19 19 18 18 15 13 14 15 15 14 14 15 16 16 15 15 13 12 10 7 6 5 7 8 10 13 13 15 16 18 18 18 18 17 17 15 14 13 12 12 11 10 9 8 8 7
17 19 20 19 19 18 17 15 12 13 14 13 12 13 14 15 15 15 14 13 11 9 7 5 3 6 7 9 10 12 14 17 18 18 18 18 18 17 17 15 15 14 14 13 12 11 10 10 9
18 19 20 19 19 17 16 15 12 12 11 11 11 11 12 14 14 13 12 11 10 9 6 3 3 5 5 7 9 11 12 15 17 18 17 18 18 18 17 17 16 16 15 14 13 13 13 12 12
19 19 20 19 18 16 15 14 13 12 11 10 9 9 11 13 12 11 11 10 10 8 5 3 3 4 5 6 9 12 13 15 17 17 17 17 18 19 18 18 17 16 15 15 15 15 14 14 14
20 19 19 19 17 15 15 13 12 11 10 10 10 10 10 11 10 10 10 10 10 8 6 4 3 4 5 6 8 11 12 13 15 17 16 17 18 19 19 18 18 17 17 16 16 16 16 16 16
20 19 19 19 17 16 15 13 12 11 11 11 10 9 10 10 9 9 10 10 10 9 6 4 3 4 5 6 8 10 12 14 16 16 16 17 18 18 18 19 18 18 18 18 18 18 18 18 18
21 20 19 19 18 17 15 14 12 12 12 11 10 9 10 9 8 9 10 11 11 9 6 5 5 5 5 7 8 10 11 13 16 16 16 17 18 18 18 18 18 18 18 18 18 19 19 20 20
21 21 21 20 20 18 17 14 13 12 12 12 11 10 11 10 10 11 11 11 10 8 5 5 6 6 6 6 8 9 11 13 14 15 15 16 17 18 19 19 19 19 19 20 20 21 21 21 22
25 23 21 20 19 19 18 16 14 14 13 13 12 11 11 11 11 11 11 11 10 9 7 5 6 7 7 6 7 9 11 12 13 13 14 15 16 17 18 19 19 19 20 20 21 22 23 23 24
Wind_Direction
34 40 41 40 38 38 43 43 44 42 38 34 30 26 25 23 20 12 355 277 223 217 210 210 213 205 198 187 175 158 145 128 107 87 71 59 51 44 36 30 25 22 24 26 27 27 28 34 37
31 35 37 36 36 37 40 44 46 43 37 31 26 21 17 14 12 4 348 309 247 221 212 211 213 207 203 196 186 171 157 139 114 89 70 56 46 37 28 24 19 18 21 21 21 22 26 33 36
27 34 32 30 36 35 37 41 44 42 34 28 23 17 11 7 5 358 348 328 265 222 213 213 212 209 205 202 196 184 173 157 129 97 74 53 38 25 19 16 14 16 18 18 18 19 22 29 34
29 27 25 24 29 30 32 36 41 39 31 24 19 13 5 1 360 356 349 330 280 230 214 210 208 206 206 206 202 194 186 177 159 123 78 45 28 19 13 10 11 13 14 15 13 13 18 28 35
14 12 13 17 19 23 28 31 35 36 31 23 15 8 360 354 350 350 348 332 279 241 222 211 209 207 206 206 205 201 199 193 184 167 110 35 20 14 6 4 8 10 11 11 7 8 13 21 32
347 347 355 0 6 14 20 26 31 32 26 17 10 5 359 351 345 341 339 326 287 251 232 220 214 210 209 208 207 207 206 200 196 192 197 6 2 1 1 1 2 1 3 4 358 2 6 7 23
321 324 315 320 339 354 3 15 22 26 21 11 5 1 355 351 344 338 330 317 291 262 236 223 214 209 208 210 210 209 208 205 205 208 218 269 334 348 353 354 350 351 355 353 350 355 353 356 20
317 311 303 307 325 337 349 2 12 17 14 11 6 360 354 352 344 334 325 313 291 260 236 224 214 209 206 209 212 210 208 207 209 215 223 248 303 333 342 343 342 344 344 343 344 344 342 345 354
320 312 309 309 317 329 342 355 5 8 11 11 5 358 354 351 345 337 329 318 292 258 236 226 214 209 207 206 209 209 208 208 211 215 222 238 271 308 326 333 336 335 335 338 339 335 328 329 322
323 316 313 311 316 326 336 347 358 7 9 6 0 357 354 350 346 342 337 326 303 264 232 224 217 212 210 206 207 209 209 209 212 214 219 231 255 282 301 315 324 321 322 326 325 317 312 308 298
326 320 318 310 313 320 329 340 350 4 7 4 360 356 352 350 347 341 332 322 304 266 239 227 215 209 210 210 210 209 209 210 212 214 218 226 242 266 281 297 308 306 310 309 303 296 281 278 251
328 327 320 309 310 314 321 333 343 358 3 359 356 356 352 350 351 347 337 326 310 279 246 227 218 214 214 214 214 211 210 210 211 213 217 225 238 255 265 283 293 293 297 301 295 274 251 243 203
324 325 318 308 303 305 311 325 336 350 354 354 355 357 353 350 348 347 344 337 324 292 249 235 227 223 219 217 216 211 211 211 211 213 217 226 235 246 254 267 272 277 292 302 287 252 221 210 188
314 313 306 299 296 297 299 310 325 342 345 345 349 354 352 349 350 347 344 336 325 305 261 239 226 222 219 213 211 209 211 211 211 215 219 226 231 239 240 242 246 258 275 279 241 194 201 212 206
301 300 296 291 291 290 298 302 313 327 333 338 342 347 349 346 347 346 343 336 328 310 274 247 228 223 221 214 211 209 209 211 213 216 219 223 226 229 230 231 233 245 252 240 215 202 201 195 175
291 291 287 288 285 286 293 298 309 319 326 332 336 343 343 340 342 343 341 337 332 316 283 243 227 222 219 216 210 207 208 211 214 216 218 220 222 226 227 230 234 238 237 228 211 200 183 173 171
283 284 282 277 282 287 291 291 298 306 316 324 334 341 343 339 340 341 339 338 332 325 295 252 232 218 216 210 209 209 211 212 214 215 217 217 219 222 224 230 231 231 229 220 210 196 188 184 171
280 280 276 271 277 284 287 290 296 304 312 320 328 336 341 341 338 337 337 335 329 320 303 271 242 221 213 208 209 213 212 210 211 213 216 218 218 220 222 224 225 228 225 218 214 209 206 194 174
279 277 273 271 275 281 284 287 294 300 307 316 323 331 336 338 337 335 336 335 329 320 301 283 244 217 211 209 212 209 207 204 208 213 215 217 217 217 217 219 221 223 224 222 221 215 206 194 185
277 276 272 269 273 280 285 287 292 294 300 310 319 325 331 335 336 335 335 334 332 320 298 275 249 219 210 208 210 208 208 207 209 213 214 213 214 217 217 219 219 220 222 218 215 213 208 200 193
276 274 271 269 274 281 286 289 292 295 299 308 315 322 331 336 336 335 333 330 328 322 299 268 239 218 209 208 208 209 213 215 211 213 214 214 213 215 219 221 218 218 219 217 213 212 208 204 204
271 269 269 272 276 280 289 291 293 295 297 303 309 319 328 334 334 331 331 329 325 317 300 275 248 216 208 206 208 212 216 216 215 216 216 216 215 216 220 223 221 221 222 219 218 217 216 216 215
264 265 270 274 277 282 289 291 296 295 298 301 306 315 322 328 330 330 331 330 326 318 304 283 244 221 214 213 211 213 214 214 215 217 218 218 216 217 220 222 224 225 226 224 223 223 223 223 224
258 262 269 274 278 281 287 289 292 296 298 303 306 310 319 323 326 331 333 333 333 326 315 285 255 226 221 218 213 212 212 213 214 218 221 220 219 219 220 222 225 227 229 229 229 230 230 231 232
255 260 265 270 276 280 282 283 288 295 293 298 304 308 316 323 325 331 339 340 338 331 322 291 250 235 233 226 220 217 218 215 215 217 220 220 220 221 223 225 225 228 230 231 233 235 236 237 240
252 257 262 269 274 276 278 281 285 289 289 293 300 304 314 319 319 322 331 338 338 327 313 286 261 246 240 236 225 219 218 220 221 220 221 221 220 224 226 227 228 232 233 235 237 238 241 243 246
245 253 260 266 272 275 276 280 281 283 286 293 302 306 311 312 312 314 318 328 328 320 306 278 260 250 242 241 230 222 220 221 223 222 224 222 221 224 227 229 233 236 237 239 241 243 245 247 251
242 246 252 262 269 272 277 282 283 281 284 284 291 303 307 300 302 309 312 322 325 314 291 272 258 266 255 246 235 225 224 225 225 226 225 222 223 225 228 229 234 238 240 243 246 248 249 251 254
239 244 252 259 266 272 277 281 286 283 282 284 285 294 302 294 287 296 305 313 320 326 306 283 268 263 259 250 239 236 231 229 228 229 226 226 226 227 230 234 237 241 244 246 249 251 254 256 258
236 242 250 258 265 271 275 278 283 285 283 285 287 289 294 290 285 293 301 308 311 319 319 307 286 269 256 253 248 241 237 233 229 228 229 230 230 233 235 238 241 245 249 251 253 257 260 261 262
Height
5881 5881 5882 5883 5883 5882 5879 5878 5876 5875 5874 5873 5872 5872 5871 5872 5872 5873 5871 5870 5870 5871 5871 5873 5874 5875 5876 5877 5879 5880 5881 5883 5884 5885 5886 5887 5888 5889 5889 5890 5890 5890 5890 5890 5890 5889 5889 5889 5889
5883 5883 5884 5885 5884 5882 5881 5880 5878 5877 5876 5875 5873 5872 5872 5871 5871 5870 5869 5869 5869 5870 5871 5872 5874 5875 5876 5877 5879 5880 5881 5882 5884 5885 5886 5887 5888 5889 5889 5890 5890 5890 5890 5890 5890 5890 5889 5889 5889
5884 5884 5886 5885 5884 5884 5883 5881 5879 5878 5877 5876 5874 5873 5873 5872 5871 5870 5869 5868 5869 5869 5870 5871 5873 5874 5876 5877 5878 5880 5881 5882 5884 5885 5886 5887 5887 5888 5889 5889 5890 5890 5890 5890 5890 5890 5890 5890 5890
5886 5886 5887 5886 5885 5884 5883 5882 5880 5879 5878 5877 5875 5874 5873 5872 5871 5869 5868 5867 5868 5868 5869 5870 5872 5873 5875 5876 5878 5879 5881 5882 5883 5884 5885 5886 5887 5888 5888 5889 5889 5889 5889 5889 5890 5890 5890 5890 5890
5887 5887 5887 5886 5885 5885 5884 5882 5880 5879 5878 5877 5876 5874 5873 5871 5870 5869 5867 5867 5866 5867 5868 5869 5870 5872 5873 5875 5877 5878 5880 5881 5883 5884 5885 5886 5887 5887 5888 5889 5889 5889 5889 5889 5889 5889 5889 5890 5890
5887 5887 5887 5886 5885 5885 5884 5882 5881 5879 5878 5877 5876 5874 5872 5871 5869 5867 5866 5866 5865 5866 5866 5867 5868 5870 5872 5873 5875 5877 5879 5881 5882 5884 5885 5885 5886 5887 5888 5888 5888 5889 5889 5889 5889 5889 5889 5890 5890
5888 5887 5886 5886 5885 5885 5884 5882 5881 5880 5878 5877 5876 5874 5872 5869 5867 5866 5865 5864 5864 5864 5864 5865 5866 5868 5870 5872 5874 5876 5878 5880 5882 5883 5884 5885 5886 5887 5887 5887 5888 5888 5888 5889 5889 5889 5889 5889 5889
5887 5887 5886 5885 5885 5885 5884 5882 5881 5879 5878 5877 5876 5874 5871 5868 5865 5864 5863 5862 5861 5861 5862 5863 5864 5866 5868 5870 5873 5875 5877 5879 5881 5882 5884 5885 5885 5886 5887 5887 5888 5888 5888 5888 5889 5889 5889 5889 5889
5887 5887 5886 5885 5885 5884 5883 5882 5880 5879 5878 5876 5875 5873 5870 5867 5863 5862 5861 5860 5859 5859 5860 5861 5862 5864 5866 5868 5871 5873 5875 5878 5880 5881 5883 5884 5885 5886 5886 5887 5887 5888 5888 5888 5888 5888 5888 5888 5889
5886 5886 5886 5885 5884 5884 5883 5882 5880 5879 5877 5876 5874 5872 5869 5866 5863 5861 5859 5858 5858 5857 5858 5859 5861 5863 5864 5866 5869 5871 5874 5876 5878 5880 5882 5883 5884 5885 5886 5886 5887 5887 5888 5888 5888 5888 5888 5888 5888
5885 5885 5885 5884 5884 5883 5882 5882 5880 5878 5877 5876 5874 5871 5868 5865 5862 5859 5858 5856 5856 5856 5856 5857 5859 5861 5863 5865 5867 5869 5872 5875 5877 5879 5881 5882 5884 5885 5885 5886 5887 5887 5887 5887 5887 5887 5887 5888 5888
5885 5884 5884 5884 5883 5882 5882 5881 5880 5878 5877 5875 5873 5870 5868 5864 5861 5858 5856 5855 5854 5854 5855 5856 5857 5859 5861 5863 5865 5867 5870 5873 5875 5878 5879 5881 5883 5884 5885 5885 5886 5886 5887 5887 5887 5887 5887 5887 5887
5884 5883 5883 5883 5882 5881 5881 5880 5879 5878 5877 5875 5872 5870 5867 5863 5860 5857 5855 5854 5853 5852 5853 5853 5855 5857 5859 5861 5863 5866 5868 5871 5874 5876 5878 5880 5881 5883 5884 5884 5885 5886 5886 5886 5886 5887 5887 5887 5887
5882 5882 5881 5881 5880 5880 5879 5879 5878 5877 5876 5874 5872 5869 5866 5863 5860 5857 5855 5853 5851 5850 5850 5851 5852 5853 5856 5858 5861 5863 5866 5869 5872 5874 5877 5878 5880 5882 5883 5883 5884 5885 5886 5886 5886 5886 5886 5886 5887
5881 5881 5880 5879 5879 5878 5879 5878 5877 5876 5875 5874 5871 5868 5865 5862 5859 5856 5854 5851 5849 5848 5847 5848 5849 5851 5853 5856 5858 5861 5864 5867 5870 5872 5875 5877 5879 5880 5881 5882 5883 5884 5885 5885 5886 5886 5886 5886 5887
5879 5879 5878 5878 5877 5877 5878 5878 5876 5875 5874 5872 5870 5867 5864 5861 5858 5855 5853 5850 5848 5846 5845 5846 5847 5848 5850 5853 5856 5859 5862 5865 5868 5870 5873 5875 5877 5879 5880 5881 5883 5883 5884 5885 5886 5886 5886 5887 5887
5877 5877 5876 5877 5876 5875 5875 5875 5875 5873 5872 5870 5868 5865 5863 5860 5857 5854 5851 5849 5847 5845 5844 5844 5845 5846 5848 5850 5853 5856 5859 5862 5865 5868 5871 5873 5875 5877 5879 5880 5882 5883 5884 5884 5885 5886 5886 5886 5887
5875 5875 5874 5874 5874 5873 5873 5873 5872 5871 5870 5869 5866 5864 5861 5858 5855 5852 5850 5848 5846 5844 5843 5842 5842 5843 5845 5848 5851 5854 5857 5860 5863 5866 5869 5871 5873 5875 5877 5879 5881 5882 5883 5884 5885 5885 5886 5886 5887
5872 5872 5873 5872 5871 5871 5871 5870 5870 5869 5868 5867 5865 5863 5860 5857 5854 5851 5849 5847 5845 5843 5841 5840 5840 5841 5842 5845 5849 5852 5855 5858 5861 5864 5867 5869 5872 5874 5876 5878 5879 5881 5882 5883 5884 5885 5885 5886 5886
5869 5870 5870 5870 5868 5868 5868 5868 5867 5866 5865 5865 5863 5861 5860 5857 5854 5850 5848 5846 5844 5841 5839 5838 5837 5838 5840 5844 5847 5850 5853 5855 5859 5862 5864 5867 5870 5872 5874 5876 5878 5879 5881 5882 5883 5884 5885 5885 5886
5866 5866 5866 5866 5866 5865 5865 5865 5864 5864 5862 5862 5861 5859 5858 5856 5853 5850 5847 5845 5843 5841 5839 5837 5837 5838 5839 5842 5844 5847 5850 5853 5856 5859 5863 5865 5867 5870 5872 5874 5876 5878 5879 5880 5882 5883 5884 5885 5885
5862 5863 5863 5863 5863 5863 5863 5862 5862 5861 5860 5859 5858 5857 5856 5854 5852 5849 5847 5844 5842 5839 5838 5837 5836 5837 5838 5840 5842 5845 5848 5851 5854 5857 5860 5863 5865 5868 5870 5872 5874 5876 5878 5879 5880 5882 5883 5884 5885
5859 5858 5859 5860 5860 5860 5860 5859 5860 5858 5857 5857 5856 5855 5854 5853 5850 5848 5845 5843 5840 5838 5836 5836 5835 5836 5837 5839 5840 5843 5846 5849 5852 5855 5858 5860 5863 5865 5867 5870 5872 5874 5876 5877 5879 5880 5882 5883 5884
5855 5855 5856 5856 5857 5858 5857 5857 5857 5856 5855 5855 5854 5853 5852 5851 5848 5846 5844 5842 5840 5837 5836 5835 5835 5836 5836 5837 5839 5841 5843 5847 5849 5852 5855 5857 5860 5863 5865 5867 5870 5872 5874 5875 5877 5878 5880 5881 5882
5851 5852 5853 5853 5854 5855 5854 5854 5855 5853 5853 5853 5852 5851 5850 5848 5846 5845 5843 5841 5840 5837 5836 5835 5835 5836 5836 5837 5838 5840 5842 5844 5847 5850 5852 5855 5857 5860 5863 5865 5867 5869 5871 5873 5874 5876 5877 5878 5880
5847 5849 5850 5851 5851 5851 5851 5851 5852 5851 5851 5850 5850 5849 5848 5846 5845 5844 5843 5841 5840 5838 5836 5835 5835 5835 5835 5836 5837 5838 5840 5842 5844 5846 5849 5852 5855 5857 5860 5862 5864 5866 5868 5870 5871 5873 5874 5876 5877
5843 5844 5846 5847 5847 5847 5848 5849 5849 5849 5848 5848 5847 5847 5846 5845 5844 5843 5842 5840 5839 5837 5836 5835 5834 5834 5835 5835 5835 5836 5837 5839 5841 5844 5846 5849 5852 5854 5857 5859 5861 5863 5865 5867 5868 5870 5871 5872 5873
5839 5840 5841 5842 5843 5843 5845 5845 5846 5846 5846 5846 5845 5845 5843 5843 5842 5841 5840 5839 5837 5836 5835 5834 5834 5833 5833 5833 5833 5834 5836 5837 5839 5841 5843 5845 5848 5851 5853 5855 5857 5860 5862 5863 5864 5866 5867 5868 5869
5834 5836 5837 5838 5839 5840 5841 5844 5843 5843 5843 5843 5843 5842 5841 5840 5840 5839 5838 5837 5836 5834 5833 5833 5833 5832 5832 5832 5832 5833 5834 5835 5837 5839 5840 5843 5845 5847 5849 5851 5853 5855 5857 5859 5860 5861 5862 5863 5864
5829 5831 5833 5835 5836 5836 5837 5842 5840 5840 5840 5840 5840 5839 5839 5838 5838 5837 5836 5836 5835 5833 5832 5832 5831 5831 5831 5831 5831 5831 5832 5833 5835 5837 5838 5840 5842 5844 5846 5848 5849 5851 5852 5854 5855 5856 5857 5857 5858